ASIASAT 9

Last updated on Sat Dec 13 2025 00:02:49 GMT+0000 (Coordinated Universal Time)

1 42942U 17057A 25346.30054596 -.00000350 00000+0 00000+0 0 9990 2 42942 0.0047 4.6826 0002387 259.7861 47.0740 1.00270318 29980
UTC large
Height (km)
Speed (km/s)
/
Latitude / Longitude
Inclination (degrees)
Orbital Period (minutes)
Azimuth
Elevation
Range (km)
Doppler Factor

Next 0 passes for location: London (51.5072 / 0.1276)

Sorry there are no passes over London.